| time (UTC) | temp C | wind direction | speed KPH | gust KPH | rain 1hr cm | rain 24hr cm | rain mn cm | humidity % | barometer mb |
| 20260505052620 | 11 | 356 | 17.7 | 24.1 | 0.00 | 0.00 | 0.00 | 46 | 1003.9 |
| 20260505052117 | 11 | 329 | 11.3 | 14.5 | 0.00 | 0.00 | 0.00 | 46 | 1003.9 |
| 20260505051614 | 11 | 349 | 11.3 | 14.5 | 0.00 | 0.00 | 0.00 | 46 | 1004.1 |
| 20260505051112 | 11 | 324 | 11.3 | 14.5 | 0.00 | 0.00 | 0.00 | 45 | 1004.2 |
| 20260505050610 | 11 | 335 | 17.7 | 20.9 | 0.00 | 0.00 | 0.00 | 46 | 1004.2 |
| 20260505050108 | 11 | 331 | 11.3 | 14.5 | 0.00 | 0.00 | 0.00 | 45 | 1004.4 |
| 20260505041537 | 11 | 331 | 17.7 | 22.5 | 0.00 | 0.00 | 0.00 | 45 | 1002.8 |
| 20260505041035 | 11 | 331 | 12.9 | 16.1 | 0.00 | 0.00 | 0.00 | 45 | 1002.7 |
| 20260505040532 | 12 | 335 | 14.5 | 16.1 | 0.00 | 0.00 | 0.00 | 45 | 1002.6 |
| 20260505040029 | 12 | 332 | 20.9 | 22.5 | 0.00 | 0.00 | 0.00 | 44 | 1002.3 |
| 20260505035525 | 12 | 344 | 22.5 | 27.4 | 0.00 | 0.00 | 0.00 | 45 | 1002.1 |
| 20260505035022 | 12 | 322 | 19.3 | 25.7 | 0.00 | 0.00 | 0.00 | 44 | 1002.5 |
| 20260505034518 | 12 | 350 | 17.7 | 17.7 | 0.00 | 0.00 | 0.00 | 44 | 1002.9 |
| 20260505034015 | 12 | 344 | 14.5 | 16.1 | 0.00 | 0.00 | 0.00 | 45 | 1003.1 |
| 20260505033512 | 12 | 317 | 24.1 | 27.4 | 0.00 | 0.00 | 0.00 | 44 | 1003.0 |
| 20260505033011 | 12 | 308 | 22.5 | 25.7 | 0.00 | 0.00 | 0.00 | 44 | 1002.7 |
| 20260505032508 | 13 | 339 | 16.1 | 20.9 | 0.00 | 0.00 | 0.00 | 45 | 1002.1 |
| 20260505032004 | 13 | 329 | 16.1 | 20.9 | 0.00 | 0.00 | 0.00 | 45 | 1002.2 |
| 20260505031501 | 13 | 304 | 16.1 | 17.7 | 0.00 | 0.00 | 0.00 | 43 | 1002.0 |
| 20260505030958 | 13 | 295 | 17.7 | 24.1 | 0.00 | 0.00 | 0.00 | 42 | 1001.8 |
| 20260505030454 | 13 | 350 | 9.7 | 11.3 | 0.00 | 0.00 | 0.00 | 41 | 1002.0 |
| 20260505025949 | 13 | 339 | 11.3 | 12.9 | 0.00 | 0.00 | 0.00 | 42 | 1001.8 |
| 20260505025447 | 13 | 312 | 9.7 | 12.9 | 0.00 | 0.00 | 0.00 | 42 | 1001.9 |
| 20260505024945 | 14 | 317 | 8.0 | 11.3 | 0.00 | 0.00 | 0.00 | 41 | 1001.8 |
| 20260505024442 | 13 | 343 | 12.9 | 17.7 | 0.00 | 0.00 | 0.00 | 41 | 1001.8 |
| 20260505023940 | 13 | 319 | 17.7 | 22.5 | 0.00 | 0.00 | 0.00 | 39 | 1001.7 |
| 20260505023436 | 13 | 331 | 14.5 | 20.9 | 0.00 | 0.00 | 0.00 | 40 | 1001.8 |
| 20260505022934 | 13 | 306 | 16.1 | 17.7 | 0.00 | 0.00 | 0.00 | 40 | 1001.7 |
| 20260505022431 | 13 | 333 | 12.9 | 12.9 | 0.00 | 0.00 | 0.00 | 41 | 1001.2 |
| 20260505021928 | 13 | 310 | 16.1 | 17.7 | 0.00 | 0.00 | 0.00 | 40 | 1001.2 |
| 20260505021425 | 13 | 314 | 9.7 | 11.3 | 0.00 | 0.00 | 0.00 | 42 | 1001.0 |
| 20260505020920 | 13 | 329 | 8.0 | 9.7 | 0.00 | 0.00 | 0.00 | 41 | 1000.9 |
| 20260505020416 | 13 | 348 | 17.7 | 20.9 | 0.00 | 0.00 | 0.00 | 41 | 1000.7 |
| 20260505015913 | 13 | 330 | 14.5 | 17.7 | 0.00 | 0.00 | 0.00 | 40 | 1000.6 |
| 20260505015410 | 13 | 342 | 14.5 | 16.1 | 0.00 | 0.00 | 0.00 | 39 | 1000.8 |
| 20260505014907 | 13 | 340 | 11.3 | 14.5 | 0.00 | 0.00 | 0.00 | 39 | 1000.8 |
| 20260505014404 | 14 | 327 | 16.1 | 17.7 | 0.00 | 0.00 | 0.00 | 37 | 1000.7 |
| 20260505013901 | 14 | 336 | 16.1 | 20.9 | 0.00 | 0.00 | 0.00 | 37 | 1000.6 |
| 20260505013358 | 15 | 332 | 19.3 | 22.5 | 0.00 | 0.00 | 0.00 | 37 | 1000.6 |
| 20260505012856 | 15 | 357 | 17.7 | 20.9 | 0.00 | 0.00 | 0.00 | 36 | 1000.0 |
| 20260505012354 | 15 | 351 | 19.3 | 20.9 | 0.00 | 0.00 | 0.00 | 37 | 1000.1 |
| 20260505011850 | 15 | 321 | 19.3 | 22.5 | 0.00 | 0.00 | 0.00 | 37 | 999.9 |
| 20260505011347 | 15 | 338 | 12.9 | 14.5 | 0.00 | 0.00 | 0.00 | 39 | 999.7 |
| 20260505010843 | 16 | 351 | 14.5 | 16.1 | 0.00 | 0.00 | 0.00 | 36 | 999.6 |
| 20260505010338 | 16 | 347 | 19.3 | 24.1 | 0.00 | 0.00 | 0.00 | 36 | 999.3 |
| 20260505005835 | 16 | 320 | 16.1 | 17.7 | 0.00 | 0.00 | 0.00 | 36 | 999.1 |
| 20260505005332 | 16 | 337 | 14.5 | 17.7 | 0.00 | 0.00 | 0.00 | 37 | 999.2 |
| 20260505004830 | 17 | 342 | 14.5 | 16.1 | 0.00 | 0.00 | 0.00 | 35 | 999.1 |
| 20260505004326 | 17 | 332 | 16.1 | 20.9 | 0.00 | 0.00 | 0.00 | 35 | 999.1 |
| 20260505003823 | 17 | 329 | 17.7 | 17.7 | 0.00 | 0.00 | 0.00 | 34 | 998.9 |
| 20260505003320 | 17 | 5 | 12.9 | 16.1 | 0.00 | 0.00 | 0.00 | 34 | 999.0 |
| 20260505002816 | 17 | 337 | 14.5 | 16.1 | 0.00 | 0.00 | 0.00 | 34 | 999.1 |
| 20260505002314 | 17 | 341 | 17.7 | 22.5 | 0.00 | 0.00 | 0.00 | 33 | 998.8 |
| 20260505001812 | 18 | 329 | 24.1 | 29.0 | 0.00 | 0.00 | 0.00 | 32 | 998.9 |
| 20260505001308 | 18 | 357 | 22.5 | 25.7 | 0.00 | 0.00 | 0.00 | 33 | 999.0 |
| 20260505000806 | 19 | 340 | 27.4 | 32.2 | 0.00 | 0.00 | 0.00 | 34 | 998.6 |
| 20260505000303 | 19 | 328 | 12.9 | 16.1 | 0.00 | 0.00 | 0.00 | 37 | 998.5 |
| 20260504235800 | 19 | 349 | 17.7 | 22.5 | 0.00 | 0.00 | 0.00 | 36 | 998.7 |
| 20260504235256 | 20 | 340 | 14.5 | 20.9 | 0.00 | 0.00 | 0.00 | 36 | 998.6 |
| 20260504234753 | 20 | 320 | 25.7 | 35.4 | 0.00 | 0.00 | 0.00 | 34 | 998.5 |
| 20260504234251 | 20 | 340 | 17.7 | 24.1 | 0.00 | 0.00 | 0.00 | 34 | 998.6 |
| 20260504233747 | 20 | 315 | 14.5 | 17.7 | 0.00 | 0.00 | 0.00 | 34 | 998.1 |
| 20260504233243 | 20 | 312 | 20.9 | 24.1 | 0.00 | 0.00 | 0.00 | 33 | 997.9 |
| 20260504232740 | 21 | 338 | 24.1 | 25.7 | 0.00 | 0.00 | 0.00 | 31 | 997.8 |
| 20260504232237 | 21 | 354 | 17.7 | 22.5 | 0.00 | 0.00 | 0.00 | 33 | 998.0 |
| 20260504231734 | 21 | 336 | 17.7 | 24.1 | 0.00 | 0.00 | 0.00 | 33 | 997.9 |
| 20260504231230 | 21 | 353 | 24.1 | 27.4 | 0.00 | 0.00 | 0.00 | 31 | 997.8 |
| 20260504230726 | 21 | 342 | 20.9 | 25.7 | 0.00 | 0.00 | 0.00 | 32 | 997.9 |
| 20260504230225 | 21 | 354 | 19.3 | 24.1 | 0.00 | 0.00 | 0.00 | 33 | 997.7 |
| 20260504225724 | 22 | 347 | 22.5 | 24.1 | 0.00 | 0.00 | 0.00 | 31 | 997.4 |
| 20260504225219 | 22 | 315 | 22.5 | 25.7 | 0.00 | 0.00 | 0.00 | 31 | 997.6 |
| 20260504224716 | 22 | 325 | 17.7 | 20.9 | 0.00 | 0.00 | 0.00 | 32 | 997.5 |
| 20260504224214 | 22 | 338 | 12.9 | 17.7 | 0.00 | 0.00 | 0.00 | 33 | 997.4 |
| 20260504223710 | 22 | 6 | 20.9 | 24.1 | 0.00 | 0.00 | 0.00 | 31 | 997.3 |
| 20260504223205 | 22 | 314 | 22.5 | 29.0 | 0.00 | 0.00 | 0.00 | 30 | 997.1 |
| 20260504222703 | 22 | 319 | 17.7 | 25.7 | 0.00 | 0.00 | 0.00 | 32 | 997.2 |
| 20260504222159 | 22 | 355 | 24.1 | 27.4 | 0.00 | 0.00 | 0.00 | 30 | 997.0 |
| 20260504221657 | 23 | 355 | 16.1 | 20.9 | 0.00 | 0.00 | 0.00 | 33 | 996.9 |
| 20260504221154 | 23 | 6 | 20.9 | 24.1 | 0.00 | 0.00 | 0.00 | 31 | 996.8 |
| 20260504220650 | 23 | 343 | 17.7 | 22.5 | 0.00 | 0.00 | 0.00 | 32 | 996.7 |
| 20260504220148 | 23 | 7 | 19.3 | 27.4 | 0.00 | 0.00 | 0.00 | 31 | 996.8 |
| 20260504215644 | 23 | 317 | 14.5 | 17.7 | 0.00 | 0.00 | 0.00 | 32 | 996.5 |
| 20260504215142 | 24 | 334 | 17.7 | 20.9 | 0.00 | 0.00 | 0.00 | 32 | 996.6 |
| 20260504214637 | 24 | 4 | 14.5 | 16.1 | 0.00 | 0.00 | 0.00 | 32 | 996.6 |
| 20260504214134 | 24 | 347 | 19.3 | 22.5 | 0.00 | 0.00 | 0.00 | 32 | 996.4 |
| 20260504213630 | 24 | 5 | 24.1 | 33.8 | 0.00 | 0.00 | 0.00 | 32 | 996.2 |
| 20260504213127 | 25 | 327 | 20.9 | 25.7 | 0.00 | 0.00 | 0.00 | 33 | 996.3 |
| 20260504212624 | 25 | 319 | 19.3 | 25.7 | 0.00 | 0.00 | 0.00 | 33 | 996.3 |
| 20260504212121 | 25 | 321 | 17.7 | 20.9 | 0.00 | 0.00 | 0.00 | 34 | 996.2 |
| 20260504211618 | 25 | 346 | 20.9 | 22.5 | 0.00 | 0.00 | 0.00 | 34 | 996.1 |
| 20260504211114 | 25 | 325 | 16.1 | 20.9 | 0.00 | 0.00 | 0.00 | 34 | 996.1 |
| 20260504210612 | 24 | 325 | 12.9 | 16.1 | 0.00 | 0.00 | 0.00 | 37 | 996.0 |
| 20260504210108 | 24 | 318 | 16.1 | 20.9 | 0.00 | 0.00 | 0.00 | 38 | 996.2 |
| 20260504205606 | 24 | 317 | 12.9 | 14.5 | 0.00 | 0.00 | 0.00 | 37 | 996.1 |
| 20260504205104 | 25 | 324 | 14.5 | 16.1 | 0.00 | 0.00 | 0.00 | 36 | 996.0 |
| 20260504204601 | 25 | 323 | 17.7 | 22.5 | 0.00 | 0.00 | 0.00 | 35 | 995.8 |
| 20260504204100 | 25 | 291 | 16.1 | 24.1 | 0.00 | 0.00 | 0.00 | 34 | 995.8 |
| 20260504203558 | 25 | 329 | 8.0 | 9.7 | 0.00 | 0.00 | 0.00 | 34 | 995.9 |
| 20260504203055 | 26 | 301 | 17.7 | 22.5 | 0.00 | 0.00 | 0.00 | 31 | 995.8 |
| 20260504202550 | 27 | 266 | 17.7 | 20.9 | 0.00 | 0.00 | 0.00 | 27 | 995.7 |
| 20260504202048 | 27 | 277 | 24.1 | 32.2 | 0.00 | 0.00 | 0.00 | 26 | 995.8 |
| 20260504201544 | 26 | 332 | 12.9 | 14.5 | 0.00 | 0.00 | 0.00 | 28 | 995.5 |
| 20260504201043 | 27 | 299 | 24.1 | 32.2 | 0.00 | 0.00 | 0.00 | 27 | 995.7 |
| 20260504200538 | 26 | 304 | 16.1 | 22.5 | 0.00 | 0.00 | 0.00 | 27 | 995.9 |
| 20260504200036 | 27 | 262 | 14.5 | 24.1 | 0.00 | 0.00 | 0.00 | 29 | 996.0 |
| 20260504195531 | 27 | 286 | 19.3 | 25.7 | 0.00 | 0.00 | 0.00 | 29 | 995.9 |
| 20260504195029 | 27 | 310 | 14.5 | 22.5 | 0.00 | 0.00 | 0.00 | 30 | 996.1 |
| 20260504194525 | 26 | 298 | 22.5 | 24.1 | 0.00 | 0.00 | 0.00 | 30 | 996.1 |
| 20260504194020 | 27 | 291 | 29.0 | 35.4 | 0.00 | 0.00 | 0.00 | 28 | 996.1 |
| 20260504193517 | 27 | 297 | 20.9 | 29.0 | 0.00 | 0.00 | 0.00 | 29 | 996.0 |
| 20260504193017 | 27 | 304 | 19.3 | 22.5 | 0.00 | 0.00 | 0.00 | 31 | 996.2 |
| 20260504192514 | 26 | 296 | 20.9 | 24.1 | 0.00 | 0.00 | 0.00 | 30 | 996.3 |
| 20260504192012 | 26 | 295 | 30.6 | 37.0 | 0.00 | 0.00 | 0.00 | 30 | 996.1 |
| 20260504191509 | 26 | 304 | 17.7 | 22.5 | 0.00 | 0.00 | 0.00 | 30 | 996.2 |
| 20260504191005 | 26 | 300 | 19.3 | 24.1 | 0.00 | 0.00 | 0.00 | 30 | 996.1 |
| 20260504190501 | 26 | 294 | 24.1 | 32.2 | 0.00 | 0.00 | 0.00 | 31 | 996.3 |
| 20260504185957 | 26 | 312 | 20.9 | 29.0 | 0.00 | 0.00 | 0.00 | 30 | 996.2 |
| 20260504185455 | 26 | 301 | 22.5 | 24.1 | 0.00 | 0.00 | 0.00 | 30 | 996.2 |
| 20260504184951 | 26 | 293 | 22.5 | 27.4 | 0.00 | 0.00 | 0.00 | 32 | 996.4 |
| 20260504184447 | 26 | 270 | 11.3 | 17.7 | 0.00 | 0.00 | 0.00 | 34 | 996.3 |
| 20260504183942 | 26 | 291 | 11.3 | 12.9 | 0.00 | 0.00 | 0.00 | 35 | 996.5 |
| 20260504183440 | 25 | 289 | 19.3 | 27.4 | 0.00 | 0.00 | 0.00 | 32 | 996.6 |
| 20260504182938 | 26 | 249 | 14.5 | 17.7 | 0.00 | 0.00 | 0.00 | 34 | 996.5 |
| 20260504182434 | 25 | 302 | 16.1 | 22.5 | 0.00 | 0.00 | 0.00 | 33 | 996.6 |
| 20260504181932 | 26 | 291 | 27.4 | 29.0 | 0.00 | 0.00 | 0.00 | 31 | 996.4 |
| 20260504181429 | 26 | 301 | 17.7 | 22.5 | 0.00 | 0.00 | 0.00 | 33 | 996.7 |
| 20260504180928 | 26 | 293 | 30.6 | 35.4 | 0.00 | 0.00 | 0.00 | 31 | 996.4 |
| 20260504180426 | 26 | 306 | 25.7 | 32.2 | 0.00 | 0.00 | 0.00 | 32 | 996.6 |
| 20260504175924 | 26 | 305 | 20.9 | 27.4 | 0.00 | 0.00 | 0.00 | 33 | 996.5 |
| 20260504175421 | 26 | 296 | 24.1 | 33.8 | 0.00 | 0.00 | 0.00 | 34 | 996.5 |
| 20260504174918 | 26 | 290 | 24.1 | 25.7 | 0.00 | 0.00 | 0.00 | 32 | 996.6 |
| 20260504174416 | 26 | 295 | 12.9 | 17.7 | 0.00 | 0.00 | 0.00 | 34 | 996.6 |
| 20260504173913 | 25 | 278 | 14.5 | 20.9 | 0.00 | 0.00 | 0.00 | 34 | 996.7 |
| 20260504173409 | 26 | 263 | 16.1 | 17.7 | 0.00 | 0.00 | 0.00 | 33 | 996.7 |
| 20260504172907 | 25 | 288 | 14.5 | 17.7 | 0.00 | 0.00 | 0.00 | 36 | 996.8 |
| 20260504172403 | 26 | 273 | 20.9 | 25.7 | 0.00 | 0.00 | 0.00 | 33 | 996.7 |
| 20260504171859 | 26 | 317 | 20.9 | 24.1 | 0.00 | 0.00 | 0.00 | 33 | 996.6 |
| 20260504171356 | 25 | 283 | 19.3 | 25.7 | 0.00 | 0.00 | 0.00 | 33 | 996.7 |
| 20260504170853 | 25 | 299 | 16.1 | 20.9 | 0.00 | 0.00 | 0.00 | 35 | 996.8 |
| 20260504170350 | 25 | 297 | 14.5 | 17.7 | 0.00 | 0.00 | 0.00 | 38 | 996.7 |
| 20260504160308 | 24 | 262 | 11.3 | 14.5 | 0.00 | 0.00 | 0.00 | 40 | 997.4 |
| 20260504150733 | 22 | 187 | 14.5 | 24.1 | 0.00 | 0.00 | 0.00 | 45 | 997.7 |
| 20260504150230 | 22 | 148 | 0.0 | 1.6 | 0.00 | 0.00 | 0.00 | 48 | 997.8 |
| 20260504141159 | 20 | 157 | 1.6 | 1.6 | 0.00 | 0.00 | 0.00 | 48 | 998.4 |
| 20260504140656 | 19 | 155 | 4.8 | 11.3 | 0.00 | 0.00 | 0.00 | 47 | 998.3 |
| 20260504140152 | 18 | 281 | 8.0 | 11.3 | 0.00 | 0.00 | 0.00 | 47 | 998.3 |
| 20260504130620 | 16 | 165 | 4.8 | 4.8 | 0.00 | 0.00 | 0.00 | 56 | 998.9 |
| 20260504130117 | 15 | 164 | 1.6 | 3.2 | 0.00 | 0.00 | 0.00 | 56 | 998.9 |
| 20260504110508 | 6 | 204 | 0.0 | 0.0 | 0.00 | 0.00 | 0.00 | 81 | 999.5 |
| 20260504100430 | 7 | 192 | 0.0 | 1.6 | 0.00 | 0.00 | 0.00 | 75 | 1000.3 |
| 20260504081823 | 6 | 180 | 3.2 | 3.2 | 0.00 | 0.00 | 0.00 | 80 | 1001.0 |
| 20260504081320 | 6 | 180 | 0.0 | 0.0 | 0.00 | 0.00 | 0.00 | 81 | 1001.2 |
| 20260504080816 | 7 | 175 | 0.0 | 0.0 | 0.00 | 0.00 | 0.00 | 79 | 1001.1 |
| 20260504080313 | 7 | 160 | 3.2 | 3.2 | 0.00 | 0.00 | 0.00 | 75 | 1001.1 |
| 20260504070240 | 3 | 265 | 0.0 | 0.0 | 0.00 | 0.00 | 0.00 | 91 | 1001.8 |
| 20260504060201 | 5 | 201 | 0.0 | 0.0 | 0.00 | 0.00 | 0.00 | 85 | 1002.5 |